AMAZONAS 5

Last updated on Wed Sep 17 2025 00:02:49 GMT+0000 (Coordinated Universal Time)

1 42934U 17053A 25259.50027166 -.00000302 00000+0 00000+0 0 9992 2 42934 0.0465 330.6993 0002351 250.9977 253.0730 1.00270415 29306
UTC large
Height (km)
Speed (km/s)
/
Latitude / Longitude
Inclination (degrees)
Orbital Period (minutes)
Azimuth
Elevation
Range (km)
Doppler Factor

Next 0 passes for location: London (51.5072 / 0.1276)

Sorry there are no passes over London.